This is the latest recevied weather packets stored in our database for station/object E20YUC-1. If no packets are shown the sender has not sent any weather packets the latest 10 day(s).
| Time | Temp. | Humidity | Pressure | Rain* | Wind** | Luminosity | Snow |
|---|---|---|---|---|---|---|---|
| 1787597661 | 28.89° C | 71% | 995 hPa | 0 mm | 4.47 m/s, 0° | - | - |
| 1787597363 | 28.89° C | 71% | 995.1 hPa | 0 mm | 0.89 m/s, 0° | - | - |
| 1787597061 | 28.89° C | 71% | 995.2 hPa | 0 mm | 4.02 m/s, 0° | - | - |
| 1787596762 | 28.89° C | 71% | 995.5 hPa | 0 mm | 1.34 m/s, 0° | - | - |
| 1787596161 | 28.89° C | 70% | 995.4 hPa | 0 mm | 1.79 m/s, 0° | - | - |
| 1787595863 | 28.89° C | 70% | 995.5 hPa | 0 mm | 3.58 m/s, 0° | - | - |
| 1787595261 | 28.89° C | 70% | 995.6 hPa | 0 mm | 1.34 m/s, 0° | - | - |
| 1787594661 | 28.89° C | 69% | 995.8 hPa | 0 mm | 4.02 m/s, 0° | - | - |
| 1787594362 | 28.89° C | 69% | 995.8 hPa | 0 mm | 2.68 m/s, 22° | - | - |
| 1787593761 | 29.44° C | 69% | 995.8 hPa | 0 mm | 4.92 m/s, 0° | - | - |
| 1787593460 | 29.44° C | 69% | 995.9 hPa | 0 mm | 3.13 m/s, 0° | - | - |
| 1787593162 | 29.44° C | 34% | 996.1 hPa | 0 mm | 1.79 m/s, 0° | - | - |
| 1787592802 | 29.44° C | 68% | 996.3 hPa | 0 mm | 1.79 m/s, 0° | - | - |
| 1787592500 | 29.44° C | 68% | 996.3 hPa | 0 mm | 1.34 m/s, 0° | - | - |
| 1787592200 | 29.44° C | 68% | 996.3 hPa | 0 mm | 0.89 m/s, 0° | - | - |
| 1787591600 | 29.44° C | 68% | 996.4 hPa | 0 mm | 4.02 m/s, 0° | - | - |
| 1787591302 | 29.44° C | 68% | 996.4 hPa | 0 mm | 0 m/s | - | - |
| 1787591000 | 29.44° C | 68% | 996.5 hPa | 0 mm | 2.24 m/s, 0° | - | - |
| 1787590400 | 29.44° C | 67% | 996.5 hPa | 0 mm | 0 m/s | - | - |
| 1787590100 | 30° C | 67% | 996.6 hPa | 0 mm | 1.79 m/s, 0° | - | - |
| 1787589802 | 30° C | 67% | 996.7 hPa | 0 mm | 0.89 m/s, 0° | - | - |
| 1787589559 | 30° C | 67% | 996.7 hPa | 0 mm | 2.24 m/s, 0° | - | - |
| 1787589200 | 30° C | 67% | 996.7 hPa | 0 mm | 0 m/s | - | - |
| 1787588600 | 30° C | 66% | 996.6 hPa | 0 mm | 0.89 m/s, 0° | - | - |
| 1787588301 | 30° C | 66% | 996.7 hPa | 0 mm | 1.34 m/s, 0° | - | - |
* Rain latest hour (hover to see other rain measurements)
** Current wind speed in m/s (hover to see current wind gust speed)